Location: Treviso
(45.6669°N, 12.2430°E)
Time: 07:01:54
(UTC+02:00)

ISS - Pass Details

Date: 20 May 2018
Orbit: 402 x 407 km, 51.6° (Epoch: 21 May)

Event Time Altitude Azimuth Distance (km) Brightness Sun altitude
Rises 23:06:36 0° 240° (WSW) 2,311 0.0 -18.7°
Reaches altitude 10° 23:08:40 10° 241° (WSW) 1,454 -1.0 -18.9°
Maximum altitude 23:11:56 89° 329° (NNW) 408 -3.9 -19.2°
Drops below altitude 10° 23:15:12 10° 62° (ENE) 1,459 -1.0 -19.4°
Sets 23:17:17 0° 62° (ENE) 2,320 0.0 -19.6°
